Погода в Орске

Погода в Орске : погода сейчас, прогноз погоды и архив. Всё, что Вы хотите узнать о погоде в Орске!

Поиск расширенной информации на нашем сайте:

Другие новости

Новости СМИ2

Главная страница сайта

Новости сайта

03.07.2017

Напоминаем, что на нашем специализированном сайте Метеоцентр.Азия вы можете получить высокодетализированные автоматические прогнозы погоды по пунктам России, СНГ и мира в авиационном формате (включающие направление и скорость ветра, видимость, явления погоды, количество и форму облачности, нижнюю и верхнюю границу облачности).


Погода в Орске - сегодня

Время (UTC), дата Ветер
(°,м/с) 
Видим.   Явления Облачность Т
(°С)
Тd
(°С)
f(%) Тe
(°С)
Pmin
(гПа)
dP
(гПа)
Po
(мм)
O2
(г/м3)
Тmin Tmax R s Состояние
почвы
00 21.09.17 240 (ЮЗ) 10 км    ясно 
+18.4 -1.2 26 +19  1019  -0.5  739  279           
03 21.09.17 290 (З) 10 км    ясно 
+17.3 -0.1 31 +18  1019.7  0.6  740  280  +14.4        сухая 
06 21.09.17 350 (С) 10 км    ясно 
+20.7 +4.4 34 +21  1019.4  0.1  740  276           
09 21.09.17 020 (С) 10 км    ясно 
+24.8 +3.3 25 +25  1018.1  -0.6  739  273           
12 21.09.17 360 (С) 10 км    ясно 
+25.9 +0.1 18 +26  1017.3  -0.6  739  272           
15 21.09.17 060 (СВ) 10 км    4/0 средняя 
[Ac trans]
+18.9 -1.2 26 +20  1018.1  739  278    +26.4       
18 21.09.17 010 (С) 10 км    4/0 средняя 
[Ac trans]
+13 -1.2 37 +13  1019.7  0.8  739  284           
21 21.09.17 030 (СВ) 10 км    3/0 средняя 
[Ac trans]
+9.4 +2.7 63 +9  1021  0.9  740  288           
00 22.09.17 030 (СВ) 10 км    3/0 средняя 
[Ac trans]
+6.8 +2.1 72 +6  1021  -0.4  740  290           
03 22.09.17 050 (СВ) 10 км    9/4 1500 м кучево-дожд., средняя 
[Cb cap|Ac trans]
+9.5 +4.1 69 +9  1021.5  0.9  740  288  +6.7        сухая 
06 22.09.17 080 (В) 7-10{11}  10 км    10/8 1500 м кучево-дожд., средняя 
[Cb cap|As trans]
+13.1 +5.9 62 +12  1022.2  1.1  741  284           
09 22.09.17 070 (В) 7-11{13}  10 км    10/8 1200 м кучево-дожд., средняя 
[Cb cap|As trans]
+13.1 +5.1 58 +12  1023.5  1.1  742  284           
12 22.09.17 060 (СВ) 7-10{12}  10 км    10/4 1500 м кучево-дожд., средняя 
[Cb cap|Ac As]
+12.8 +1.7 47 +12  1024.9  1.3  743  286           
15 22.09.17 060 (СВ) 7-10{12}  10 км    6/0 средняя 
[Ac trans]
+9.8 +0.6 53 +8  1027.2  1.8  744  289    +13.6       
18 22.09.17 040 (СВ) 3{11}  10 км    3/0 средняя 
[Ac trans]
+4.4 -0.8 69 +3  1029.7  1.8  746  296           
21 22.09.17 040 (СВ) 10 км    3/0 средняя 
[Ac trans]
+2.9 -1.5 73 +1  1030.3  0.4  746  298           
00 23.09.17 040 (СВ) 10 км    ясно 
+1.1 -1.9 80 1032.2  1.5  747  300           
03 23.09.17 030 (СВ) 10 км    ясно 
+1.4 -1.1 83 1033.9  1.7  749  300  -0.6        сухая 
06 23.09.17 040 (СВ) 7{10}  10 км    ясно 
+9.5 -2.6 43 +8  1033.6  0.7  749  292           
09 23.09.17 050 (СВ) 6{11}  10 км    ясно 
+11.9 -5.1 30 +11  1033.1  0.1  749  290           
12 23.09.17 070 (В) 4{11}  10 км    ясно 
+13.3 -7 24 +13  1032.6  -0.4  749  288           
15 23.09.17 070 (В) 10 км    ясно 
+8.3 -7.5 32 +8  1033.6  0.4  749  294    +13.4       
18 23.09.17 170 (Ю) 10 км    ясно 
+5 -7.3 41 +4  1033.9  0.1  749  297           
21 23.09.17 190 (Ю) 10 км    ясно 
+2.5 -7.1 49 +1  1033.7  0.1  749  300           
00 24.09.17 300 (СЗ) 10 км    4/0 средняя 
[Ac trans]
+2.1 -6.2 54 +3  1033.8  749  300           
Время (UTC), дата Ветер
(°,м/с) 
Видим.   Явления Облачность Т
(°С)
Тd
(°С)
f(%) Тe
(°С)
Pmin
(гПа)
dP
(гПа)
Po
(мм)
O2
(г/м3)
Тmin Tmax R s Состояние
почвы

Для получения пояснительной информации подведите курсор к названию столбца.

ПОГОДА в Орске - архив

Всё, что Вы хотите узнать о погоде в Орске - удобно и подробно!

Выберите нужную дату (начиная с 1 января 2015* года) и нажмите кнопку "Найти".
Будут отображены архивные сводки погоды по пункту Орск, начиная с указанной даты.


Отображать данные в формате CSV (для использования в таблицах Excel)


Внимание! Наш архив погоды предназначен исключительно для личного некоммерческого использования в познавательных целях. Если Вам необходимы официальные справки о состоянии погоды (для производственных, юридических, коммерческих и т.п. целей), обращайтесь в органы Росгидромета.

*Примечание: данная дата относится к архиву по метеостанциям СССР (Россия, СНГ, Балтия).
Архив по метеостанциям Зарубежной Европы и Азии (кроме Китая) хранится 10 дней, по другим регионам земного шара (Китай, Африка, Америка, Австралия, Океания) - 1 день.

Орск - район местоположения метеостанции


Название, широта, долгота, высота метеостанции:
Орск 51.1°ш. 58.6°д. 285 м над ур. моря [Российская Федерация]

Дополнительная информация

В oтличие oт бoльшинства пoгoдных сайтoв мы публикуем пoдрoбную метеoинфoрмацию в детальнoм прoфессиoнальнoм фoрмате.

Характеристики температуры и влажнoсти вoздуха измеряются на высoте 2 м в тени вдали oт зданий и деревьев.
Скoрoсть ветра измеряется на высoте 10 м (на урoвне рoста челoвека скoрoсть ветра ниже в 1.5-2 раза). Если метеoстанция нахoдится в гoрoде или в лесу, тo скoрoсть ветра занижена на 2-4 м/с пo сравнению с oткрытым местoм. Скoрoсть ветра над акватoриями крупных рек и oзёр, а также на вершинах хoлмoв на 2-5 м/с выше, чем в oбычных услoвиях.
Атмoсфернoе давление в разных тoчках местнoсти мoжет значительнo oтличаться oт давления на метеoстанции, в зависимoсти oт услoвий рельефа (при пoдъёме на 10 м давление пoнижается примернo на 1 мм рт.ст.).